Theta_e
301 301 301 301 300 300 300 298 297 298 298 299 299 300 300 301 301 299 294 295 290 285 285 287 287 285 285 287 283 283 286 285 285 281 281 279 278 278 278 281 279 279 278 278 279 275 273 286 283 283 288 284 282 283
301 301 301 301 300 300 301 300 300 301 299 300 300 300 301 301 300 298 292 295 294 288 286 289 289 290 289 290 287 287 287 285 288 283 282 282 279 278 279 276 283 278 283 281 282 282 286 284 287 281 279 282 280 279
302 302 302 302 301 301 301 302 300 300 300 300 301 301 300 300 300 297 294 294 293 286 287 288 286 290 292 291 292 287 288 289 288 290 285 284 280 283 278 278 282 284 285 283 283 286 284 281 278 275 275 276 275 276
301 302 302 302 302 302 301 301 301 300 300 301 301 301 299 300 300 297 294 293 293 287 284 284 291 288 291 291 291 291 292 293 293 291 286 283 281 285 282 283 283 285 283 284 284 285 278 279 278 277 273 273 273 274
301 301 302 302 302 302 302 302 302 301 300 299 301 301 301 301 298 295 293 293 293 289 282 283 286 290 290 290 289 290 291 290 289 285 284 283 284 284 283 281 281 283 284 282 283 284 284 282 276 274 272 271 272 271
299 300 301 301 302 302 302 302 302 302 302 302 302 302 302 300 299 295 286 293 293 293 285 280 286 285 287 288 288 288 289 289 289 286 286 286 283 285 281 279 283 283 275 275 282 271 271 270 272 272 271 270 271 270
298 299 301 302 302 303 302 302 303 302 302 302 302 302 301 298 293 287 286 288 293 294 285 281 281 283 284 286 285 283 284 283 285 285 283 283 281 284 281 278 284 277 273 269 270 270 269 269 269 269 268 268 268 268
298 302 304 303 303 302 302 302 303 303 302 302 302 301 299 297 293 287 287 290 292 286 285 281 279 280 281 283 280 283 280 280 279 281 278 279 278 279 276 282 274 269 267 266 266 266 267 267 266 266 266 266 265 264
299 303 305 303 303 302 302 302 302 303 302 302 300 297 292 286 285 285 290 288 283 283 282 279 278 276 279 280 281 280 282 278 277 277 276 275 278 274 279 281 272 268 268 268 264 264 264 265 265 264 264 265 263 262
298 301 303 303 302 302 302 302 302 302 301 299 292 286 282 282 290 290 285 283 281 276 273 276 267 276 276 278 277 278 278 278 275 274 273 271 273 278 270 268 269 268 265 263 261 260 262 263 263 262 263 264 264 262
295 298 300 300 302 302 302 302 302 300 296 287 284 281 282 285 284 282 278 278 275 275 269 266 267 273 276 276 278 278 277 276 273 272 272 274 271 273 263 262 264 265 263 262 261 262 265 265 263 261 260 261 260 260
292 295 296 298 299 301 302 300 297 288 285 286 283 281 281 279 279 279 273 270 271 275 266 269 269 269 271 274 275 275 274 273 272 267 269 271 277 262 261 259 259 260 260 258 256 260 262 263 263 261 260 259 259 259
289 292 292 294 296 298 298 297 295 291 287 283 280 278 277 274 275 275 273 271 268 263 264 265 268 270 271 273 274 274 271 271 265 267 271 275 268 261 259 256 255 255 256 256 256 258 260 258 259 260 257 257 256 254
288 288 289 290 291 292 296 297 294 285 280 279 276 275 274 270 270 273 272 269 263 264 264 266 268 271 271 272 273 272 267 266 268 267 272 276 267 260 256 255 256 255 255 256 256 256 257 257 255 254 256 255 254 253
287 286 286 285 286 286 286 284 280 271 273 269 268 270 263 262 259 258 258 260 261 263 264 264 267 270 271 271 268 267 266 267 269 271 274 270 261 258 256 255 255 255 253 253 252 254 254 253 254 252 252 253 254 253
287 283 279 285 285 284 282 276 273 269 261 262 259 260 253 260 259 257 257 260 260 262 262 264 268 268 270 269 267 267 268 268 273 271 269 259 257 257 256 255 255 256 255 253 252 253 253 252 254 255 249 251 252 254
283 271 283 283 281 279 278 268 272 261 262 260 260 250 257 258 262 258 258 259 260 261 265 265 267 271 265 263 263 265 268 274 273 269 261 258 259 258 256 255 253 252 252 253 252 252 253 251 250 251 253 252 251 253
268 273 282 285 273 270 260 260 262 262 262 254 261 258 252 254 255 253 253 255 258 259 258 263 261 264 266 267 270 271 268 266 259 259 258 255 253 254 256 257 254 254 254 252 252 251 250 249 252 256 256 255 252 251
275 275 283 284 271 263 264 260 260 264 257 250 250 251 251 251 248 249 251 251 251 252 256 256 257 262 265 265 268 267 264 263 266 260 256 252 253 254 254 254 254 253 253 252 251 253 254 253 257 258 257 254 257 257
282 283 282 279 272 264 261 258 254 259 258 255 250 250 251 251 246 245 247 249 252 252 253 254 260 265 266 267 266 267 265 260 259 259 260 255 253 251 254 255 255 255 253 250 251 251 252 252 252 254 256 256 256 257
280 275 276 266 260 258 257 253 254 252 249 254 246 252 250 247 248 249 250 246 251 253 257 260 260 262 254 253 252 255 259 260 264 269 269 261 254 254 253 254 254 254 254 253 254 253 252 256 259 255 254 254 256 258
272 278 267 268 263 257 256 250 254 250 252 246 249 248 250 250 250 248 247 249 252 258 257 260 259 263 256 255 256 251 255 256 252 254 254 256 253 253 253 254 253 254 254 255 256 257 256 256 256 256 255 256 255 255
275 270 265 264 265 261 257 250 254 249 256 251 246 251 252 247 244 246 249 253 256 258 257 256 252 243 252 244 243 246 248 256 256 257 257 258 258 258 257 255 256 256 256 256 257 258 258 256 255 256 255 254 254 254
272 266 265 266 266 261 252 254 251 251 252 253 255 253 251 245 243 245 253 255 257 246 247 249 247 249 248 246 253 256 254 253 257 255 254 255 256 255 258 257 256 258 260 259 257 257 257 256 255 255 255 255 254 254
266 267 265 263 256 257 259 256 254 252 258 253 254 255 250 243 250 249 253 258 254 254 255 249 251 259 265 263 256 259 250 256 258 259 257 257 255 252 252 253 255 257 256 256 255 256 256 256 255 255 254 254 255 254
263 266 264 266 259 261 262 260 258 260 257 253 253 246 243 249 253 260 259 261 260 258 253 254 257 257 258 259 262 258 258 255 258 260 258 257 259 262 260 257 256 257 254 258 260 256 256 255 255 255 255 254 254 255
263 266 259 252 257 258 255 253 256 260 259 260 254 250 254 256 260 265 265 260 263 261 259 260 262 264 266 266 260 251 255 257 258 259 257 259 261 263 265 263 261 264 258 257 259 259 259 257 256 255 256 256 256 256
266 261 266 259 252 254 259 257 258 258 262 260 258 257 261 263 268 270 267 259 253 253 254 254 255 258 258 257 257 253 251 249 250 252 254 254 253 257 260 257 255 261 258 258 259 260 260 260 259 258 257 258 258 256
260 260 261 258 255 253 258 262 262 262 260 261 265 265 265 267 265 262 259 254 252 256 257 256 252 251 252 251 252 255 254 257 259 257 259 263 257 262 256 258 258 257 257 257 260 260 259 260 260 260 259 259 260 258
258 256 259 257 259 261 258 252 252 247 249 249 250 256 259 260 261 257 254 254 256 259 260 259 257 258 259 260 257 252 251 258 263 267 265 267 268 262 259 258 259 259 257 257 257 259 264 262 263 260 257 256 256 255
248 250 254 255 257 252 248 246 246 247 250 252 250 252 258 258 259 260 257 258 260 259 258 259 257 259 259 260 259 259 260 257 255 257 257 256 258 261 260 260 261 260 259 259 259 259 260 260 259 259 257 257 256 256
248 253 254 256 256 249 247 248 251 252 253 252 257 253 257 259 263 269 259 258 259 259 261 262 262 263 261 262 263 262 262 263 260 259 259 260 260 260 260 259 259 259 258 259 259 259 259 260 259 259 258 257 257 256
249 250 250 253 255 255 253 254 254 254 253 254 256 257 259 260 265 265 259 258 259 260 261 262 262 262 262 262 263 264 263 263 263 264 263 263 263 262 259 258 258 258 258 258 258 258 258 258 259 259 258 258 258 257
Wind_Speed
14 15 15 14 13 10 8 12 13 14 13 16 21 20 22 25 18 6 3 2 3 2 2 3 2 5 4 6 7 5 6 1 3 6 6 5 6 8 5 8 9 12 8 10 12 15 28 8 5 17 15 2 3 4
14 11 12 12 11 9 11 8 9 22 23 21 22 21 20 23 20 7 2 1 3 1 3 1 1 1 1 1 6 8 2 6 7 5 5 3 4 4 3 8 6 11 15 12 11 8 5 4 9 0 1 5 1 3
9 9 10 11 11 12 11 17 23 28 25 18 24 23 22 18 9 5 2 1 2 4 2 1 0 3 2 2 3 5 2 4 5 1 4 3 5 5 7 9 5 7 4 9 10 21 16 8 4 5 3 4 2 3
5 5 8 9 10 13 12 16 20 22 23 20 19 19 19 22 16 8 3 0 3 3 3 1 1 4 2 1 3 2 4 4 3 2 2 3 4 5 5 3 6 3 7 9 15 14 7 13 14 6 8 6 7 6
19 11 1 8 11 12 14 14 16 19 18 15 17 20 18 15 15 8 4 2 1 3 3 2 0 3 2 1 2 1 2 4 2 2 3 5 2 3 2 2 9 8 10 8 14 3 5 5 2 9 10 10 9 13
19 16 9 2 13 13 13 14 14 14 15 15 14 14 17 15 9 4 3 3 3 2 3 1 0 1 1 1 5 6 4 3 2 3 3 4 2 3 5 7 5 8 4 2 7 4 3 5 4 4 8 8 8 11
23 20 16 10 13 16 15 14 14 13 12 13 14 15 16 10 6 3 1 1 4 2 2 1 2 2 1 2 2 2 1 2 2 3 4 2 4 5 4 15 10 6 6 4 5 6 3 6 3 7 11 11 9 12
27 26 11 21 21 20 17 17 15 13 12 11 12 19 16 19 12 2 3 2 2 3 0 2 1 2 2 3 3 1 3 2 2 1 1 2 2 3 9 11 4 6 8 5 5 1 3 8 8 8 9 11 11 11
30 25 23 29 25 22 18 17 16 14 12 19 23 17 5 5 2 2 7 11 4 2 3 2 4 3 2 1 2 2 1 3 1 3 2 2 4 10 12 10 8 12 9 8 8 5 7 9 11 11 12 9 11 10
27 27 21 22 23 19 17 16 16 17 26 20 4 3 1 1 6 6 1 1 2 3 4 1 1 3 1 2 1 2 1 2 3 1 2 4 7 4 4 1 3 11 10 14 9 6 8 10 12 12 10 8 8 10
22 21 20 19 12 15 15 16 22 24 9 3 2 2 0 4 0 0 1 0 1 1 1 1 2 1 1 2 3 2 1 1 3 2 3 3 7 3 2 3 2 8 11 6 2 1 8 10 13 11 8 7 9 10
17 17 17 15 16 16 22 23 16 6 2 4 7 4 1 3 1 2 0 1 2 1 2 2 1 1 1 1 1 2 2 1 5 1 2 5 4 2 3 3 4 6 7 5 1 3 5 9 10 10 9 8 8 7
13 12 13 13 14 11 13 13 18 24 10 3 5 3 2 2 2 5 5 3 3 4 3 1 2 1 1 2 1 2 4 4 1 2 6 7 1 3 6 5 4 4 4 5 4 2 6 9 9 8 9 5 9 8
7 9 10 10 10 13 14 18 19 8 5 3 5 4 5 3 6 4 3 3 2 2 4 3 2 2 1 2 0 3 1 1 3 3 8 2 3 6 6 3 7 7 6 7 6 5 7 8 6 5 7 9 10 9
3 4 5 5 6 8 10 11 11 6 4 3 3 5 7 2 2 2 2 1 1 2 2 3 2 1 2 2 0 2 1 5 6 6 4 1 2 7 9 8 5 5 4 5 5 6 6 7 8 7 5 6 6 8
7 4 2 4 4 6 7 7 6 4 5 4 4 3 1 1 1 1 3 2 2 2 1 1 3 2 4 2 4 8 4 8 5 4 1 3 4 6 6 8 7 6 6 5 5 5 6 7 8 8 6 5 5 7
4 3 4 7 5 8 8 4 3 6 4 3 2 1 1 1 2 3 3 3 2 3 3 2 6 5 3 1 5 6 8 4 2 2 2 3 6 9 8 7 6 6 6 6 6 6 5 5 5 6 8 8 7 6
2 3 5 7 5 5 5 5 5 4 3 3 3 4 2 1 3 2 3 4 5 4 3 4 2 4 6 5 5 6 6 2 1 2 2 3 4 5 8 10 8 8 8 6 5 5 5 6 7 7 5 7 6 5
3 4 7 9 5 6 4 2 3 4 3 1 0 1 1 2 0 2 2 3 2 1 4 2 2 6 7 6 6 3 3 4 3 3 2 3 4 7 8 6 7 7 7 7 8 8 8 10 5 6 6 7 7 7
6 6 9 5 3 5 4 3 1 5 4 2 2 3 1 1 2 2 2 1 2 2 2 6 10 6 7 5 5 4 3 5 5 3 2 4 5 6 8 8 7 7 6 5 5 4 4 4 6 5 6 7 7 7
6 5 4 4 4 7 4 2 2 1 4 3 1 3 3 1 2 3 3 1 0 6 7 9 7 5 2 2 1 2 4 8 8 5 5 5 6 7 6 5 6 6 7 7 8 7 8 9 6 7 8 8 7 6
2 10 2 2 4 3 5 1 2 2 3 1 2 0 3 3 4 4 5 2 8 8 9 6 5 6 5 6 6 8 3 6 3 4 6 10 8 7 7 8 9 9 9 9 8 9 9 7 6 6 7 8 7 7
9 4 3 2 3 2 2 1 3 1 3 4 2 0 4 3 2 2 5 7 9 8 6 5 4 0 2 1 2 3 6 9 6 6 5 4 3 5 6 9 10 10 9 9 8 8 7 8 8 8 7 6 6 6
3 4 6 6 5 4 2 3 2 3 2 3 5 5 3 4 3 2 8 6 7 0 5 7 5 3 2 1 5 7 9 7 3 2 3 6 5 7 7 7 9 9 7 4 8 8 7 7 8 8 7 8 8 8
5 8 7 7 1 6 6 5 5 3 6 5 4 4 4 4 4 6 8 7 5 6 6 6 7 9 7 4 2 5 6 10 10 10 8 8 4 3 2 3 5 7 6 6 7 9 8 8 9 9 10 10 12 12
6 8 13 10 4 9 11 9 10 10 6 6 8 2 2 3 2 11 7 7 6 7 9 13 14 10 9 9 4 6 10 9 7 6 5 11 11 8 9 9 7 7 11 10 9 11 10 9 10 12 11 13 14 11
8 9 4 0 2 4 3 1 2 4 9 11 7 7 5 5 10 9 5 5 5 5 6 9 12 12 9 8 5 1 5 12 7 4 2 10 10 9 8 10 13 6 11 16 13 13 14 13 13 13 12 9 12 13
11 6 9 7 2 0 6 5 8 11 7 5 8 9 13 12 9 5 4 1 1 1 2 1 1 2 4 4 6 9 4 4 4 3 3 1 3 4 6 2 2 9 9 12 13 12 12 12 12 12 13 13 10 10
5 3 5 5 2 4 8 10 9 5 4 7 8 7 8 5 3 2 2 2 1 1 3 4 2 2 4 4 3 4 8 11 14 9 9 7 2 8 10 8 7 5 5 7 12 10 12 10 10 10 11 9 7 6
4 0 2 4 7 9 4 2 2 2 1 0 3 4 4 4 4 2 2 2 3 4 2 2 4 7 6 8 6 4 5 7 9 8 8 10 10 3 8 11 10 10 8 7 7 6 9 9 7 5 5 5 4 4
1 1 1 3 5 2 2 2 2 2 2 2 2 3 4 6 7 4 5 4 4 3 2 3 3 5 6 7 7 6 8 9 12 10 2 1 1 3 4 6 7 8 9 10 9 9 9 8 8 8 9 10 10 9
1 5 4 3 4 1 1 1 1 2 2 2 3 2 2 1 5 3 3 2 1 3 4 2 4 5 7 3 4 3 2 4 9 13 16 9 5 4 5 5 6 7 8 9 9 9 11 12 9 10 10 12 11 11
2 1 1 2 3 2 1 1 1 2 1 2 2 2 2 2 6 3 1 1 1 3 4 4 4 2 1 4 5 4 4 3 4 8 10 12 12 9 6 5 6 8 10 8 8 8 11 12 11 11 11 11 11 11
Wind_Direction
77 90 93 100 108 120 122 133 206 200 189 166 188 180 170 160 135 101 96 120 137 99 87 129 246 153 145 178 154 140 127 197 147 181 189 184 212 201 205 217 181 191 194 215 233 240 250 154 145 214 238 237 176 258
87 100 104 104 103 94 101 66 79 160 165 168 166 160 150 155 142 95 102 103 85 138 104 127 136 327 44 167 128 180 170 156 170 174 211 167 197 171 192 242 191 235 217 223 213 233 246 223 240 283 251 277 217 228
82 95 103 110 91 84 89 85 96 132 151 135 139 140 126 121 122 120 109 147 112 98 89 68 299 330 296 26 337 141 205 180 194 218 156 173 214 173 208 232 228 231 173 231 248 247 240 226 214 208 202 237 294 247
358 92 121 119 118 112 105 103 113 129 144 140 141 138 146 157 152 146 155 179 76 100 124 187 233 276 335 85 54 3 120 109 101 159 201 187 206 189 223 255 232 217 160 227 240 253 291 249 234 206 171 156 140 121
24 34 122 153 141 136 133 126 124 131 145 158 164 165 151 120 103 89 90 63 70 126 154 185 354 203 219 182 137 134 149 142 151 182 216 234 184 159 219 299 242 174 214 211 244 255 245 274 124 163 165 167 159 143
358 350 354 29 176 159 146 144 138 136 141 148 151 149 135 127 112 63 33 38 2 38 101 195 49 181 62 144 194 198 188 204 201 193 204 212 178 213 229 242 227 212 209 205 269 92 54 75 89 135 130 140 148 138
340 320 289 236 185 165 155 144 143 144 141 145 148 146 140 100 66 86 176 351 335 0 105 253 273 69 27 115 95 103 50 171 212 212 221 223 181 194 240 251 241 211 187 182 153 137 157 197 194 128 117 110 109 101
338 318 233 178 167 162 153 148 142 139 139 138 126 123 108 99 111 77 359 356 3 95 103 207 200 190 6 172 156 198 169 175 195 249 200 218 127 206 249 244 176 149 139 163 173 38 4 114 118 118 124 133 135 126
359 26 117 140 146 151 153 144 142 139 129 116 116 112 72 40 76 82 94 76 61 48 181 191 192 200 342 95 114 149 216 204 83 237 216 168 194 223 232 219 193 181 184 171 143 134 149 159 153 152 151 151 140 139
17 31 79 116 131 137 148 155 150 132 123 121 66 64 124 37 319 144 11 134 42 16 20 180 5 157 321 190 137 147 209 235 228 173 129 222 258 252 207 224 294 169 144 140 132 172 176 176 172 168 170 148 148 151
22 37 54 67 116 128 142 133 124 123 98 66 99 96 327 321 85 353 147 159 28 231 21 146 212 143 28 171 170 216 183 175 247 136 235 231 261 233 114 139 89 137 151 149 71 73 178 172 165 160 161 144 136 141
23 34 46 65 82 106 123 125 120 77 72 109 111 103 107 44 89 205 8 308 229 237 152 181 135 307 300 300 210 165 214 167 248 81 236 258 249 121 155 138 118 124 134 143 236 184 164 150 153 145 140 144 147 129
28 33 36 58 68 105 122 103 106 118 112 58 49 64 14 58 195 208 204 211 240 170 185 177 159 219 224 243 204 187 210 224 149 210 236 241 146 187 171 152 137 109 119 132 132 130 127 122 124 144 148 123 121 127
48 50 51 49 63 77 88 121 118 89 77 131 160 217 203 202 239 197 178 155 106 130 159 149 140 200 197 175 260 220 89 278 242 240 236 241 216 171 163 165 147 165 162 147 154 148 141 140 128 110 131 144 142 147
98 100 75 51 81 85 98 97 65 47 72 140 101 226 204 50 42 33 28 82 163 119 168 134 138 213 170 176 39 91 223 242 223 235 237 204 190 160 168 161 174 167 153 148 157 151 142 136 146 133 140 143 139 137
188 93 63 92 111 126 104 78 52 82 55 92 75 111 43 74 213 219 183 179 164 143 144 298 126 161 218 180 172 215 178 225 244 220 172 148 177 176 162 164 180 170 170 159 148 146 141 153 158 150 145 163 162 163
109 188 204 147 114 77 60 83 94 50 122 84 239 290 162 120 163 150 154 146 143 167 193 154 181 193 93 167 241 200 213 232 223 216 194 209 188 182 164 154 152 150 164 168 162 167 149 130 121 130 166 191 187 190
192 244 228 198 128 64 31 39 84 98 197 183 182 178 198 346 127 173 182 169 156 180 164 204 114 182 206 209 229 226 226 234 238 245 234 200 190 169 167 171 169 172 172 170 168 149 134 151 174 196 179 162 166 193
226 226 205 153 122 94 93 0 55 206 202 164 150 77 106 104 61 350 106 113 73 59 125 114 160 213 222 216 222 233 222 209 187 181 212 210 197 172 169 154 155 163 168 165 177 185 188 193 197 186 182 168 199 190
102 91 104 87 105 93 51 321 43 118 184 183 102 156 121 76 97 94 89 91 121 120 136 204 219 216 201 218 197 196 178 147 137 127 224 208 197 172 181 171 179 168 161 167 189 175 180 199 215 205 192 195 197 206
167 186 97 75 53 63 89 135 60 139 133 156 192 163 112 119 147 162 173 186 140 216 234 220 228 236 210 246 243 190 165 169 190 182 173 162 173 179 168 180 159 168 180 188 191 199 204 212 194 184 192 209 215 220
189 137 74 10 87 45 74 346 120 137 87 121 145 185 152 187 190 203 138 175 231 230 211 201 218 203 192 222 199 206 183 155 125 114 88 113 137 171 194 187 176 192 198 198 195 203 207 203 187 179 192 208 202 216
117 117 80 84 97 131 164 85 108 348 145 207 81 33 237 213 182 150 245 226 251 223 209 211 203 140 245 90 121 207 196 171 186 194 184 182 165 157 151 171 185 182 194 210 199 202 203 179 185 194 197 196 203 218
106 163 184 204 189 163 132 167 67 112 107 185 174 233 231 178 162 178 251 242 240 220 207 201 152 124 27 353 219 206 191 192 168 149 175 160 174 202 192 183 191 204 200 151 181 196 190 191 180 188 193 200 205 215
123 236 158 211 125 127 184 165 173 177 230 166 181 240 193 159 172 222 238 258 232 217 197 160 190 214 211 216 192 196 156 174 183 198 190 194 126 101 166 210 212 210 165 167 183 190 194 185 189 195 195 201 210 212
214 225 185 198 170 174 180 164 194 195 157 173 221 88 161 137 180 242 227 224 226 194 179 188 189 193 228 220 177 183 199 183 159 195 188 185 191 183 181 183 196 230 197 206 187 191 190 190 196 197 207 212 215 215
229 250 198 77 136 109 66 36 64 172 180 195 164 163 161 194 237 245 254 222 219 214 187 176 179 191 207 187 180 164 141 163 173 190 153 181 197 203 185 182 200 214 163 184 194 194 195 191 197 201 209 205 209 208
217 180 197 170 201 243 156 179 181 197 196 156 131 185 181 200 233 240 230 352 7 14 109 70 89 148 148 153 136 133 103 110 112 95 84 66 233 226 227 204 177 154 158 179 190 193 196 195 197 198 201 212 214 202
233 182 146 163 156 217 216 199 206 210 138 173 187 197 218 219 249 283 331 344 349 162 147 160 174 113 80 64 65 125 141 159 154 164 208 224 222 234 197 207 190 174 167 170 195 193 196 192 193 196 201 206 210 179
242 147 154 173 185 219 216 195 231 281 1 49 308 298 270 260 247 171 182 177 198 225 239 196 144 179 175 172 166 200 226 209 212 190 184 205 218 142 161 180 188 185 174 172 172 171 193 187 197 170 171 182 188 186
311 68 253 211 240 254 260 285 263 255 249 232 173 197 276 316 300 219 206 197 176 164 174 200 195 201 176 182 181 174 224 208 227 240 237 17 242 182 162 168 169 163 168 176 177 182 183 180 192 191 196 205 206 205
202 203 183 231 260 261 219 236 272 264 192 221 212 233 279 271 259 272 42 68 60 274 267 273 229 238 210 234 208 207 124 142 184 205 207 208 208 186 157 145 144 150 159 169 175 180 189 196 194 203 209 213 212 209
283 253 259 296 294 261 170 219 232 293 270 253 246 201 270 266 257 26 66 44 331 332 336 316 301 319 271 217 229 231 199 185 179 192 196 203 194 170 155 152 152 156 157 163 170 175 184 195 204 205 210 215 213 213